#timestamp,LO_Frequency,Hit 
1498446015.1,286047007.0,N
1498446035.8,286047010.2,N
1498446055.7,286047009.6,N
1498446075.5,286047011.7,N
1498446095.3,286047009.9,N
1498446115.2,286047010.4,N
1498446135.0,286047006.7,N
1498446135.9,286047006.7,N
1498446155.7,286047006.4,N
1498446175.6,286047010.4,N
1498446195.4,286047009.3,N
1498446215.2,286047008.4,N
1498446235.1,286047008.5,N
1498446236.0,286047008.5,N
1498446255.8,286047008.1,N
1498446275.6,286047007.5,N
1498446295.5,286047007.3,N
1498446315.3,286047005.6,N
1498446335.1,286047003.3,N
1498446355.8,286047005.3,N
1498446375.7,286047004.8,N
1498446395.5,286047006.5,N
1498446415.3,286047004.6,N
1498446435.2,286047006.0,N
1498446455.9,286047003.0,N
1498446475.7,286047008.8,N
1498446495.6,286047008.7,N
1498446515.4,286047006.2,N
1498446535.2,286047007.4,N
1498446555.1,286047007.0,N
1498446556.0,286047007.0,N
1498446575.8,286047005.6,N
1498446595.6,286047003.4,N
1498446615.5,286047004.9,N
1498446635.3,286047005.6,N
1498446655.1,286047002.9,N
1498446675.8,286047005.5,N
1498446695.7,286047006.0,N
1498446715.5,286047002.9,N
1498446735.3,286047003.0,N
1498446755.2,286047003.6,N
1498446775.9,286047004.4,N
1498446795.7,286047001.6,N
1498446815.6,286047005.6,N
1498446835.4,286047007.2,N
1498446855.2,286047007.0,N
1498446875.1,286047010.5,N
1498446876.0,286047010.5,N
1498446895.8,286047011.8,N
1498446915.6,286047011.2,N
1498446935.5,286047011.9,N
1498446955.3,286047008.9,N
1498446975.1,286047008.3,N
1498446995.8,286047007.8,N
1498447015.7,286047008.0,N
1498447035.5,286047010.7,N
1498447055.3,286047011.0,N
1498447075.2,286047010.6,N
1498447095.9,286047009.2,N
1498447115.7,286047005.4,N
1498447135.6,286047006.8,N
1498447155.4,286047008.6,N
1498447175.2,286047008.4,N
1498447195.1,286047006.6,N
1498447196.0,286047006.6,N
1498447215.8,286047010.7,N
1498447235.6,286047012.4,N
1498447255.5,286047010.1,N
1498447275.3,286047011.2,N
1498447295.1,286047010.1,N
1498447315.8,286047008.4,N
1498447335.7,286047007.6,N
1498447355.5,286047006.8,N
1498447375.3,286047008.0,N
1498447395.2,286047006.2,N
1498447415.9,286047005.0,N
1498447435.7,286047005.0,N
1498447455.6,286047005.1,N
1498447475.4,286047006.0,N
1498447495.2,286047005.3,N
1498447515.1,286047005.3,N
1498447516.0,286047005.3,N
1498447535.8,286047007.4,N
1498447555.6,286047009.2,N
1498447575.4,286047006.4,N
1498447595.3,286047008.9,N
1498447615.1,286047008.8,N
1498447635.8,286047004.7,N
1498447655.7,286047004.6,N
1498447675.5,286047007.1,N
1498447695.3,286047006.4,N
1498447715.2,286047008.0,N
1498447735.9,286047009.5,N
1498447755.7,286047011.7,N
1498447775.6,286047011.5,N
1498447795.4,286047012.3,N
1498447815.2,286047011.4,N
1498447835.0,286047009.7,N
1498447836.0,286047009.7,N
1498447855.8,286047011.4,N
1498447875.6,286047013.2,N
1498447895.4,286047012.8,N
1498447915.3,286047011.2,N
1498447935.1,286047012.5,N
1498447955.8,286047015.5,Y
1498447975.7,286047003.6,N
1498447995.5,286047002.0,N
1498448015.3,286047002.2,N
1498448035.2,286046999.7,N
1498448055.0,286047000.2,N
1498448055.9,286047000.2,N
1498448075.7,286047001.6,N
1498448095.6,286047003.8,N
1498448115.4,286047001.6,N
1498448135.2,286047002.3,N
1498448155.1,286047000.4,N
1498448156.0,286047000.4,N
1498448175.8,286047002.2,N
1498448195.6,286047001.3,N
1498448215.5,286047004.1,N
1498448235.3,286047002.5,N
1498448255.1,286047003.7,N
1498448275.8,286047003.4,N
1498448295.7,286047001.7,N
1498448315.5,286047000.3,N
1498448335.3,286047002.3,N
1498448355.2,286047001.9,N
1498448375.9,286047000.5,N
1498448395.7,286046998.7,N
1498448415.6,286046998.2,N
1498448435.4,286046999.8,N
1498448455.2,286047000.3,N
1498448475.1,286047000.7,N
1498448476.0,286047000.7,N
1498448495.8,286047000.9,N
1498448515.6,286047004.0,N
1498448535.4,286047003.9,N
1498448555.3,286047004.3,N
1498448575.1,286047000.2,N
1498448595.8,286047002.3,N
1498448615.7,286047001.6,N
1498448635.5,286047001.6,N
1498448655.3,286047000.8,N
1498448675.2,286047001.1,N
1498448695.9,286047001.8,N
1498448715.7,286047002.1,N
1498448735.6,286047000.0,N
1498448755.4,286047000.0,N
1498448775.2,286047000.2,N
1498448795.1,286047002.7,N
1498448796.0,286047002.7,N
1498448815.8,286047001.7,N
1498448835.6,286047004.0,N
1498448855.4,286047007.0,N
1498448875.3,286047007.0,N
1498448895.1,286047004.6,N
1498448915.8,286047004.8,N
1498448935.7,286047005.9,N
1498448955.5,286047004.6,N
1498448975.3,286047004.9,N
1498448995.2,286047004.1,N
1498449015.9,286047003.8,N
1498449035.7,286047004.9,N
1498449055.6,286047006.9,N
1498449075.4,286047004.6,N
1498449095.2,286047003.0,N
1498449115.0,286047003.8,N
1498449116.0,286047003.8,N
1498449135.8,286047003.2,N
1498449155.6,286047004.8,N
1498449175.4,286047006.9,N
1498449195.3,286047005.2,N
1498449215.1,286047003.3,N
1498449235.8,286047002.3,N
1498449255.7,286047002.3,N
1498449275.5,286047000.0,N
1498449295.3,286046998.5,N
1498449315.2,286047002.1,N
1498449335.9,286047003.4,N
1498449355.7,286047001.3,N
1498449375.6,286047000.0,N
1498449395.4,286047001.8,N
1498449415.2,286047006.0,N
1498449435.0,286047004.3,N
1498449435.9,286047004.3,N
1498449455.8,286047004.8,N
1498449475.6,286047007.3,N
1498449495.4,286047008.7,N
1498449515.3,286047008.4,N
1498449535.1,286047006.4,N
1498449555.8,286047006.4,N
1498449575.7,286047005.5,N
1498449595.5,286047003.4,N
